Location: Ahausen
(50.4985°N, 8.2722°E)
Time: 08:14:27
(UTC+00:00)

SO-50 - Visible Passes

Search period start: 04 July 2022 00:00
Search period end: 14 July 2022 00:00
Orbit: 586 x 697 km, 64.6° (Epoch: 03 July)

Date Brightness Start Highest point End Pass type
(mag) Time Alt. Az. Time Alt. Az. Time Alt. Az.
04 Jul ? 01:35:15 10° WNW 01:39:08 23° NNW 01:43:05 10° NNE visible
04 Jul ? 22:40:10 28° S 22:42:07 42° ESE 22:46:42 10° NE visible
05 Jul ? 00:18:02 10° WSW 00:22:35 42° NW 00:27:15 10° NNE visible
05 Jul ? 02:00:53 10° WNW 02:04:15 18° NNW 02:07:39 10° NNE visible
05 Jul ? 21:25:44 14° SE 21:26:48 15° ESE 21:29:25 10° ENE visible
05 Jul ? 23:03:15 21° SW 23:06:28 83° SE 23:11:22 10° NE visible
06 Jul ? 00:43:20 10° W 00:47:28 27° NNW 00:51:41 10° NNE visible
06 Jul ? 02:26:27 10° NW 02:29:27 16° N 02:32:30 10° NNE visible
06 Jul ? 21:48:40 21° SSE 21:50:50 30° ESE 21:55:03 10° ENE visible
06 Jul ? 23:26:22 10° WSW 23:31:02 54° NW 23:35:53 10° NE visible
07 Jul ? 01:08:55 10° WNW 01:12:31 20° NNW 01:16:10 10° NNE visible
07 Jul ? 22:11:24 16° SSW 22:15:05 60° SE 22:19:54 10° NE visible
07 Jul ? 23:51:29 10° W 23:55:50 33° NNW 00:00:18 10° NNE visible
08 Jul ? 01:34:33 10° NW 01:37:41 17° N 01:40:52 10° NNE visible
08 Jul ? 20:56:22 11° SSE 20:59:36 21° ESE 21:03:15 10° ENE visible
08 Jul ? 22:34:48 10° SW 22:39:33 72° NW 22:44:28 10° NE visible
09 Jul ? 00:16:56 10° WNW 00:20:48 23° NNW 00:24:44 10° NNE visible
09 Jul ? 01:59:57 10° NW 02:02:55 16° N 02:05:55 10° NE visible
09 Jul ? 21:19:18 10° SSW 21:23:44 43° ESE 21:28:21 10° NE visible
09 Jul ? 22:59:42 10° WSW 23:04:14 41° NW 23:08:54 10° NNE visible
10 Jul ? 00:42:35 10° WNW 00:45:55 18° NNW 00:49:18 10° NNE visible
10 Jul ? 02:24:57 10° NNW 02:28:09 17° N 02:31:23 10° NE visible
10 Jul ? 21:43:21 10° SW 21:48:06 85° SE 21:53:02 10° NE visible
10 Jul ? 23:25:01 10° W 23:29:07 27° NNW 23:33:19 10° NNE visible
11 Jul ? 01:08:08 10° NW 01:11:08 16° N 01:14:10 10° NNE visible
11 Jul ? 20:28:20 10° S 20:32:27 31° ESE 20:36:42 10° ENE visible
11 Jul ? 22:08:01 10° WSW 22:12:42 53° NW 22:17:31 10° NE visible
11 Jul ? 23:50:35 10° WNW 23:54:11 20° NNW 23:57:49 10° NNE visible
12 Jul ? 01:33:19 10° NNW 01:36:23 16° N 01:39:27 10° NE visible
12 Jul ? 20:52:02 10° SSW 20:56:43 62° SE 21:01:33 10° NE visible
12 Jul ? 22:33:08 10° W 22:37:29 33° NNW 22:41:56 10° NNE visible
13 Jul ? 00:16:13 10° NW 00:19:21 17° N 00:22:31 10° NNE visible
13 Jul ? 01:58:07 10° NNW 02:01:35 19° NNE 02:05:03 10° ENE visible
13 Jul ? 21:16:27 10° SW 21:21:12 71° NW 21:26:06 10° NE visible
13 Jul ? 22:58:37 10° WNW 23:02:27 23° NNW 23:06:22 10° NNE visible
